sat.trackr.live / text

‹ back to catalog

STARLINK-31678

NORAD 59493 · 2024-071K

PAYLOAD ACTIVE UNKNOWN

§ Identity

Operator
Country
US
Launch date
2024-04-13
Launch site
AFETR
Launch vehicle
Mass (kg)
RCS (m²)

Purposes: comms

External: N2YO · Heavens-Above · Gunter

§ Orbital elements

Epoch: 2026-09-21T10:31:29.017920Z

Period
94.27 min
Inclination
43.0024°
Eccentricity
0.0001258
Mean motion
15.27577392 rev/d
Perigee alt
482.2 km
Apogee alt
483.9 km
Semi-major
6,861.2 km
B*
2.2740e-5
RAAN
321.9756°
Arg perigee
267.9028°
Mean anomaly
92.1679°
Rev number
13,687

§ Raw data

STARLINK-316781 59493U 24071K   26264.43853030  .00000364  00000+0  22740-4 0  99912 59493  43.0024 321.9756 0001258 267.9028  92.1679 15.27577392136875

JSON: /api/v1/satellites/59493 · /tle

For live sub-satellite position, see the globe view (requires WebGL).

§ Visibility from observer

Set your observer location to see the next 7 days of passes ≥ 10°. The values pass through the URL so the page stays shareable.

No JS? Fill the form by hand. The geolocation button needs JavaScript.